EST,Max TemperatureF,Mean TemperatureF,Min TemperatureF,Max Dew PointF,MeanDew PointF,Min DewpointF,Max Humidity, Mean Humidity, Min Humidity, Max Sea Level PressureIn, Mean Sea Level PressureIn, Min Sea Level PressureIn, Max VisibilityMiles, Mean VisibilityMiles, Min VisibilityMiles, Max Wind SpeedMPH, Mean Wind SpeedMPH, Max Gust SpeedMPH,PrecipitationIn, CloudCover, Events, WindDirDegrees
2013-11-1,84,79,73,74,71,69,94,82,69,30.01,29.95,29.91,10,10,10,18,9,23,0.00,6,,169
2013-11-2,77,70,63,74,67,56,97,83,68,30.01,29.91,29.84,10,8,1,20,7,24,0.58,7,Rain,286
2013-11-3,76,68,60,61,49,38,97,61,25,30.14,30.06,30.00,10,10,10,17,8,21,0.00,1,,25
2013-11-4,79,70,60,63,55,50,78,60,42,30.18,30.15,30.12,10,10,10,16,9,26,0.00,6,,42
2013-11-5,83,75,66,66,64,62,87,71,54,30.16,30.12,30.07,10,10,10,16,9,25,0.00,5,,50
2013-11-6,86,78,70,67,64,61,84,64,44,30.13,30.09,30.03,10,10,10,12,6,17,0.00,4,,48
2013-11-7,84,76,68,68,65,63,93,76,58,30.08,30.03,29.99,10,10,10,13,5,21,0.00,5,,354
2013-11-8,80,72,64,67,60,54,90,69,48,30.14,30.08,30.02,10,10,10,15,9,22,0.00,3,,29
2013-11-9,83,74,64,63,60,57,78,65,51,30.18,30.14,30.10,10,10,10,14,7,24,0.00,4,,60
2013-11-10,83,74,65,64,62,60,87,67,47,30.19,30.14,30.09,10,10,10,14,6,17,0.00,5,,37
2013-11-11,84,75,65,66,64,61,93,74,54,30.18,30.13,30.08,10,10,10,10,5,17,0.00,4,,25
2013-11-12,78,72,66,68,64,52,87,74,61,30.14,30.09,30.03,10,10,10,14,4,17,0.01,7,Rain,344
2013-11-13,68,61,53,52,47,43,72,62,52,30.33,30.24,30.11,10,10,10,21,13,30,0.00,5,,32
2013-11-14,77,64,51,55,50,45,83,61,38,30.31,30.25,30.19,10,10,10,15,8,23,0.00,4,,58
2013-11-15,73,68,63,67,60,55,87,77,66,30.20,30.14,30.08,10,10,10,15,6,,0.01,8,Rain,51
2013-11-16,74,72,69,70,67,63,93,86,78,30.15,30.08,30.04,10,10,7,13,5,18,0.16,8,Rain,71
2013-11-17,81,75,68,70,67,63,90,79,67,30.10,30.05,30.01,10,10,10,9,3,13,0.00,7,,188
2013-11-18,81,75,69,71,69,67,93,80,67,30.04,29.99,29.94,10,10,10,9,3,14,0.01,5,Rain,224
2013-11-19,82,74,65,72,67,57,100,81,61,30.00,29.95,29.90,10,10,9,14,6,18,T,7,Rain,19
2013-11-20,81,73,64,69,65,59,90,76,62,30.11,30.04,29.99,10,10,10,13,7,18,T,6,Rain,44
2013-11-21,85,78,70,69,68,66,90,74,58,30.20,30.15,30.10,10,10,10,15,7,24,0.00,6,,57
2013-11-22,83,77,70,68,66,62,97,76,55,30.20,30.16,30.11,10,10,10,10,6,17,0.00,5,,56
2013-11-23,81,73,64,65,64,62,93,74,54,30.14,30.09,30.03,10,10,10,13,6,24,0.00,1,,358
2013-11-24,70,64,58,65,57,48,100,82,63,30.25,30.15,30.06,10,10,10,17,11,28,0.00,6,,29
2013-11-25,76,67,58,61,55,49,76,63,49,30.24,30.18,30.08,10,10,10,15,8,26,0.00,7,,73
2013-11-26,80,74,67,72,69,62,93,84,74,30.05,29.89,29.79,10,9,5,21,12,28,0.16,8,Rain,159
2013-11-27,72,58,44,70,55,33,93,77,61,30.24,29.94,29.75,10,10,7,26,14,38,0.03,6,Rain,298
2013-11-28,64,51,38,48,38,30,77,58,39,30.37,30.31,30.24,10,10,10,14,8,21,0.00,1,,19
2013-11-29,72,62,51,54,50,46,89,68,47,30.38,30.33,30.29,10,10,10,16,9,21,0.00,3,,38
2013-11-30,76,66,55,60,56,48,86,70,54,30.33,30.26,30.19,10,10,9,14,9,21,0.00,4,,39